SCP
0 0 0 0 0 0 0 0 0 0 0 0 0 0 0 0 0 0 0 0 0 0 0 0 0 0 0 0 0 0 0 0 0 0 0 0 0 0 0 0 0 0 0
0 0 0 0 0 0 0 0 0 0 0 0 0 0 0 0 0 0 0 0 0 0 0 0 0 0 0 0 0 0 0 0 0 0 0 0 0 0 0 0 0 0 0
0 0 0 0 0 0 0 0 0 0 0 0 0 0 0 0 0 0 0 0 0 0 0 0 0 0 0 0 0 0 0 0 0 0 0 0 0 0 0 0 0 0 0
0 0 0 0 0 0 0 0 0 0 0 0 0 0 0 0 0 0 0 0 0 0 0 0 0 0 0 0 0 0 0 0 0 0 0 0 0 0 0 0 0 0 0
0 0 0 0 0 0 0 0 0 0 0 0 0 0 0 0 0 0 0 0 0 0 0 0 0 0 0 0 0 0 0 0 0 0 0 0 0 0 0 0 0 0 0
0 0 0 0 0 0 0 0 0 0 0 0 0 0 0 0 0 0 0 0 0 0 0 0 0 0 0 0 0 0 0 0 0 0 0 0 0 0 0 0 0 0 0
0 0 0 0 0 0 0 0 0 0 0 0 0 0 0 0 0 0 0 0 0 0 0 0 0 0 0 0 0 0 0 0 0 0 0 0 0 0 0 0 0 0 0
0 0 0 0 0 0 0 0 0 0 0 0 0 0 0 0 0 0 0 0 0 0 0 0 0 0 0 0 0 0 0 0 0 0 0 0 0 0 0 0 0 0 0
0 0 0 0 0 0 0 0 0 0 0 0 0 0 0 0 0 0 0 0 0 0 0 0 0 0 0 0 0 0 0 0 0 0 0 0 0 0 0 0 0 0 0
0 0 0 0 0 0 0 0 0 0 0 0 0 0 0 0 0 0 0 0 0 0 0 0 0 0 0 0 0 0 0 0 0 0 0 0 0 0 0 0 0 0 0
0 0 0 0 0 0 0 0 0 0 0 0 0 0 0 0 0 0 0 0 0 0 0 0 0 0 0 0 0 0 0 0 0 0 0 0 0 0 0 0 0 0 0
0 0 0 0 0 0 0 0 0 0 0 0 0 0 0 0 0 0 0 0 0 0 0 0 0 0 0 0 0 0 0 0 0 0 0 0 0 0 0 0 0 0 0
0 0 0 0 0 0 0 0 0 0 0 0 0 0 0 0 0 0 0 0 0 0 0 0 0 0 0 0 0 0 0 0 0 0 0 0 0 0 0 0 0 0 0
0 0 0 0 0 0 0 0 0 0 0 0 0 0 0 0 0 0 0 0 0 0 0 0 0 0 0 0 0 0 0 0 0 0 0 0 0 0 0 0 0 0 0
0 0 0 0 0 0 0 0 0 0 0 0 0 0 0 0 0 0 0 0 0 0 0 0 0 0 0 0 0 0 0 0 0 0 0 0 0 0 0 0 0 0 0
0 0 0 0 0 0 0 0 0 0 0 0 0 0 0 0 0 0 0 0 0 0 0 0 0 0 0 0 0 0 0 0 0 0 0 0 0 0 0 0 0 0 0
0 0 0 0 0 0 0 0 0 0 0 0 0 0 0 0 0 0 0 0 0 0 0 0 0 0 0 0 0 0 0 0 0 0 0 0 0 0 0 0 0 0 0
0 0 0 0 0 0 0 0 0 0 0 0 0 0 0 0 0 0 0 0 0 0 0 0 0 0 0 0 0 0 0 0 0 0 0 0 0 0 0 0 0 0 0
0 0 0 0 0 0 0 0 0 0 0 0 0 0 0 0 0 0 0 0 0 0 0 0 0 0 0 0 0 0 0 0 0 0 0 0 0 0 0 0 0 0 0
0 0 0 0 0 0 0 0 0 0 0 0 0 0 0 0 0 0 0 0 0 0 0 0 0 0 0 0 0 0 0 0 0 0 0 0 0 0 0 0 0 0 0
0 0 0 0 0 0 0 0 0 0 0 0 0 0 0 0 0 0 0 0 0 0 0 0 0 0 0 0 0 0 0 0 0 0 0 0 0 0 0 0 0 0 0
0 0 0 0 0 0 0 0 0 0 0 0 0 0 0 0 0 0 0 0 0 0 0 0 0 0 0 0 0 0 0 0 0 0 0 0 0 0 0 0 0 0 0
0 0 0 0 0 0 0 0 0 0 0 0 0 0 0 0 0 0 0 0 0 0 0 0 0 0 0 0 0 0 0 0 0 0 0 0 0 0 0 0 0 0 0
0 0 0 0 0 0 0 0 0 0 0 0 0 0 0 0 0 0 0 0 0 0 0 0 0 0 0 0 0 0 0 0 0 0 0 0 0 0 0 0 0 0 0
0 0 0 0 0 0 0 0 0 0 0 0 0 0 0 0 0 0 0 0 0 0 0 0 0 0 0 0 0 0 0 0 0 0 0 0 0 0 0 0 0 0 0
0 0 0 0 0 0 0 0 0 0 0 0 0 0 0 0 0 0 0 0 0 0 0 0 0 0 0 0 0 0 0 0 0 0 0 0 0 0 0 0 0 0 0
Wind_Speed
16 16 16 15 15 14 13 14 13 11 12 11 11 10 10 9 9 8 9 8 9 10 9 10 12 11 10 9 10 10 11 11 16 15 11 11 11 12 13 12 12 12 13
13 14 15 14 14 15 16 15 13 13 12 12 11 10 10 10 9 9 10 10 9 11 11 11 12 10 12 11 10 12 12 12 14 19 14 11 12 12 12 12 12 12 11
11 13 14 15 16 18 17 15 14 13 12 12 11 11 11 10 9 10 10 10 10 11 11 12 12 12 13 11 12 12 12 12 13 15 16 12 10 10 11 12 12 10 12
12 14 17 18 18 17 15 14 15 14 13 13 12 11 10 9 9 9 9 10 10 11 12 12 12 12 13 14 13 14 13 13 13 13 14 12 10 9 8 10 11 9 10
13 16 18 15 14 13 14 14 14 13 14 12 11 11 10 8 8 9 9 11 11 12 11 11 12 16 19 17 13 11 11 10 10 12 12 11 10 9 9 9 11 10 10
14 16 14 12 13 14 14 14 13 13 12 11 11 10 10 9 14 18 14 10 11 11 10 10 11 14 18 23 25 25 21 14 12 11 11 12 12 11 10 10 10 11 10
14 14 13 13 14 14 14 14 14 14 12 12 11 10 11 12 18 18 19 11 9 8 8 8 9 10 16 10 18 23 19 22 21 14 12 13 14 12 12 13 12 12 12
12 13 12 13 14 13 13 15 14 12 12 11 11 11 10 12 17 18 18 11 7 7 8 8 9 9 11 14 12 10 9 10 14 11 10 12 12 12 12 13 12 12 11
12 13 13 13 14 14 15 15 13 12 11 11 10 11 11 12 16 17 16 6 6 8 8 8 9 9 17 23 13 9 9 9 14 18 19 18 22 22 17 9 8 9 10
12 12 11 12 14 15 15 14 11 11 11 11 10 10 11 10 14 16 16 5 7 7 7 8 13 14 19 21 10 7 9 10 7 8 11 14 12 13 18 9 6 8 8
9 8 9 11 13 13 12 11 10 11 10 10 10 9 9 11 13 16 16 6 7 7 7 5 6 16 19 20 16 7 13 13 5 7 8 8 7 6 7 7 7 7 8
7 8 9 10 11 10 10 10 11 12 11 10 9 8 7 9 12 13 16 15 12 7 6 5 7 16 18 18 13 14 19 14 6 7 8 8 8 7 7 7 8 9 10
7 8 8 9 9 9 10 11 10 10 10 9 9 8 7 7 9 16 16 16 15 8 5 10 13 15 15 10 13 17 13 6 7 7 8 8 7 7 8 7 7 8 9
9 8 7 8 8 9 9 10 10 11 11 10 10 9 7 6 6 6 6 7 10 8 6 8 12 13 10 11 11 9 6 6 8 7 8 8 7 7 7 7 7 7 7
8 7 6 7 8 9 10 10 12 12 13 13 11 9 9 8 10 14 9 7 6 7 5 3 2 3 4 4 5 5 5 6 7 7 8 8 9 8 8 7 6 6 6
8 7 6 6 7 7 8 8 18 16 20 21 16 13 10 11 12 15 15 13 12 11 5 2 3 3 4 5 6 6 6 6 6 7 8 8 9 9 9 8 7 6 7
9 8 6 7 7 8 8 9 8 13 19 20 20 19 16 14 14 14 13 12 11 8 3 3 3 4 4 5 6 6 7 7 7 7 8 8 8 8 9 9 8 7 7
9 10 9 7 7 8 9 9 8 9 9 9 15 20 19 17 16 14 13 8 4 3 3 3 4 4 4 5 6 6 7 7 7 7 7 7 7 8 8 9 8 9 9
8 6 6 6 7 8 8 8 8 9 8 7 5 9 18 17 16 15 11 5 4 4 4 4 4 4 4 5 5 6 7 7 7 7 7 8 7 7 8 8 9 13 11
7 12 10 6 7 7 8 8 8 8 8 8 9 8 8 8 6 6 5 4 4 4 4 4 4 4 4 4 5 6 6 7 7 7 7 7 6 7 8 9 9 9 8
7 8 13 8 6 7 7 8 8 8 8 8 8 10 15 8 8 7 6 5 5 5 4 4 4 4 4 4 5 6 7 7 7 6 6 6 7 7 7 7 8 9 9
6 6 6 6 6 7 7 7 7 8 8 8 6 8 18 8 6 6 6 5 5 4 4 4 3 4 4 4 5 6 6 7 7 6 6 6 6 7 7 7 8 8 9
6 6 6 6 6 10 9 7 8 8 7 7 7 7 8 7 7 6 6 5 4 4 3 3 4 4 4 4 5 6 6 7 7 6 6 6 7 7 7 8 9 10 10
6 7 7 6 6 6 7 7 8 8 7 7 7 7 7 7 7 7 6 5 4 4 3 3 4 5 6 6 5 6 6 8 7 5 6 6 7 7 7 8 9 10 10
6 6 6 6 6 6 7 7 8 8 8 8 7 7 6 6 6 6 5 5 5 4 4 4 3 4 6 8 8 8 11 13 9 4 3 4 6 7 7 8 8 9 10
6 6 6 5 6 6 7 7 7 8 7 7 7 6 7 6 6 6 5 5 4 4 3 3 4 5 6 6 8 11 13 11 9 7 3 3 5 6 7 6 9 9 10
Wind_Direction
209 209 211 209 207 204 205 205 202 198 196 199 202 206 213 218 220 224 233 235 241 250 252 252 257 258 261 262 261 259 259 259 272 282 279 279 275 276 282 282 281 281 285
209 208 212 209 203 206 210 207 200 199 198 200 201 207 214 219 219 223 236 241 241 249 254 256 260 262 262 264 265 264 263 260 266 278 281 279 275 275 277 278 284 285 283
205 209 212 210 208 210 210 204 199 199 197 198 200 208 215 218 222 226 232 241 243 247 252 254 258 262 266 266 266 267 265 264 261 269 278 280 278 275 278 280 280 279 281
207 211 215 215 213 212 208 202 199 197 196 198 202 208 213 217 224 230 233 241 246 250 251 251 255 257 263 267 268 266 265 267 266 268 274 279 279 274 273 284 288 282 282
211 217 221 218 214 210 207 204 200 197 199 197 200 207 212 216 223 226 232 240 244 250 252 252 255 261 266 273 277 275 272 273 275 276 278 283 285 287 286 285 286 288 280
216 223 222 214 210 209 206 201 198 198 197 193 199 205 211 220 237 244 246 237 240 245 252 255 259 270 278 285 291 294 292 289 290 287 288 287 288 287 286 283 284 285 286
222 226 220 213 213 210 205 200 199 196 192 195 199 204 215 227 240 251 259 257 241 241 246 256 266 270 285 283 286 290 291 291 292 291 289 286 286 285 282 279 273 271 273
228 229 220 212 213 207 203 204 202 195 193 196 198 205 214 229 239 251 259 261 247 242 245 249 258 267 274 281 277 275 269 273 281 284 274 277 280 280 273 275 277 276 271
236 233 223 213 212 206 206 205 199 193 194 195 196 201 211 228 238 248 258 247 247 249 250 252 259 262 279 291 294 285 283 281 292 297 298 300 303 305 304 299 293 289 286
244 238 225 214 212 211 209 204 195 192 195 192 200 202 208 218 233 243 252 241 248 254 254 254 271 281 288 297 297 286 290 292 291 297 300 300 299 296 300 295 283 279 281
257 242 227 218 216 215 208 198 188 188 187 192 199 202 207 216 230 240 247 236 238 252 259 254 261 286 294 300 306 297 293 308 307 297 295 292 290 284 280 270 257 255 259
256 239 228 218 213 211 202 194 188 186 186 192 196 205 212 220 224 234 243 247 249 243 253 256 267 287 297 305 309 304 311 322 313 302 301 301 301 298 291 281 269 256 248
262 247 233 217 208 201 197 193 188 189 189 190 193 204 210 205 219 231 239 246 255 253 247 267 283 296 305 309 304 309 319 316 302 302 303 302 298 292 293 290 282 270 260
266 255 233 216 208 201 198 196 195 193 192 192 194 202 204 200 203 213 226 244 253 263 272 278 290 300 302 299 303 310 305 294 300 299 300 299 300 301 301 300 299 298 287
267 256 236 220 209 205 206 207 204 205 198 193 196 193 191 201 211 207 202 214 216 231 242 233 251 284 291 293 294 292 294 299 304 301 302 306 309 309 308 306 298 297 288
271 256 236 222 212 208 209 218 224 217 215 211 206 198 204 204 206 212 219 229 239 247 246 222 253 269 281 291 298 302 302 301 302 304 304 306 310 311 311 310 306 301 296
262 258 238 224 214 210 208 210 214 219 220 217 213 208 203 203 207 213 221 231 241 250 235 229 250 263 275 285 290 294 298 299 300 300 303 306 308 309 311 312 312 309 302
264 259 247 227 216 212 211 210 208 202 201 207 213 211 207 206 209 213 220 221 226 220 201 229 246 256 267 278 286 291 295 300 300 300 301 303 306 308 310 311 311 310 306
269 261 249 231 218 214 211 209 207 206 205 195 182 205 206 206 209 215 212 192 197 213 218 230 240 250 261 273 282 287 292 295 297 299 300 303 305 308 308 308 308 311 312
270 267 258 237 222 215 210 207 205 204 202 194 192 190 186 185 189 196 191 179 198 213 219 229 239 246 257 268 279 285 290 293 295 294 298 301 303 303 305 307 309 310 307
274 270 264 248 222 213 208 205 203 200 200 198 196 191 183 183 189 189 190 194 203 210 215 224 236 248 257 266 274 281 286 290 291 293 297 300 303 306 306 305 306 306 306
269 261 249 240 224 212 208 203 200 200 199 196 186 193 197 186 184 187 193 200 200 200 203 213 230 241 249 260 272 280 285 288 291 294 296 298 300 304 308 309 311 312 311
263 259 252 241 226 219 214 202 198 198 197 191 185 185 188 182 184 187 191 191 188 194 200 211 232 249 256 263 268 273 278 282 286 288 292 299 304 308 311 312 314 316 315
260 253 247 238 223 213 206 197 195 196 193 189 189 188 187 182 181 184 181 177 180 191 202 215 233 252 268 278 277 276 274 278 276 269 275 287 300 306 309 312 315 317 316
260 250 242 231 218 210 204 196 191 191 191 190 189 187 182 177 177 176 172 171 176 194 212 223 238 257 272 282 286 286 290 299 304 298 273 287 295 300 306 311 317 320 320
260 247 237 224 213 206 200 194 189 187 188 188 186 183 180 177 176 171 167 168 176 194 212 228 245 264 279 286 289 298 307 313 316 320 311 292 302 308 315 314 319 323 324